Location: Fort Wayne
(41.1310°N, 85.1290°W)
Time: 05:20:56
(UTC-04:00)

ISS - Visible Passes

Search period start: 24 October 2017 00:00
Search period end: 03 November 2017 00:00
Orbit: 400 x 408 km, 51.6° (Epoch: 24 October)

Date Brightness Start Highest point End Pass type
(mag) Time Alt. Az. Time Alt. Az. Time Alt. Az.
28 Oct -1.0 07:12:42 10° S 07:15:06 19° SE 07:17:32 10° E visible
29 Oct -0.4 06:22:42 10° SE 06:22:56 10° SE 06:23:10 10° SE visible
30 Oct -2.9 07:03:24 10° SW 07:06:32 47° SE 07:09:41 10° ENE visible
31 Oct -1.8 06:13:25 22° SSE 06:14:13 24° SE 06:16:55 10° ENE visible
01 Nov -3.9 06:56:31 28° WSW 06:58:03 70° NW 07:01:18 10° NE visible
02 Nov -2.2 06:06:44 35° ENE 06:06:44 35° ENE 06:08:49 10° ENE visible
02 Nov -2.4 07:39:36 10° WNW 07:42:17 23° NNW 07:44:58 10° NE visible
